KPQL

Details ICAO KPQL
Name TRENT LOTT INTL
Region United States
Timezone America/Chicago (UTC-5.0)
Plans Departing 7
Arriving 6
Stats Elevation 17 ft / 5 m (AMSL)
Location 30.462782° -88.529228°
Runways 1
Magnetic Variation 1.967° W
Sunrise 2018-05-23 10:56:57 UTC / 2018-05-23 05:56:57 Local
Sunset 2018-05-24 00:47:41 UTC / 2018-05-23 19:47:41 Local
Advertisement - Login to hide

Runways

ID Width Length Bearing (true) Bearing (mag) Surface Threshold Offset Overrun Length
17 100 ft / 30 m 6,519 ft / 1,987 m 166.12° 168.09° Asphalt 0 ft / 0 m 0 ft / 0 m
35 100 ft / 30 m 6,519 ft / 1,987 m 346.12° 348.09° Asphalt 0 ft / 0 m 0 ft / 0 m

Approach Navaids

Runway Type Ident Frequency Range Bearing (true) Bearing (mag) Slope Elevation
17 Localiser IPQL 110.10 MHz 18 nm / 33 km 166.12° 168.09° - 17 ft / 5 m (AMSL)
17 Glidescope IPQL 110.10 MHz 10 nm / 19 km 166.12° 168.09° 3.00° 17 ft / 5 m (AMSL)

Map

Weather


0- 5 10 15 20 25 30 35+ Temperature / ° C

Clouds and Precipitation
Forecast for 2018-05-23 18:00 UTC. Updated 5 hours ago

Ground ~20,000 ft ~40,000 ft Winds

METAR

KPQL 232153Z 21003KT 10SM CLR 31/21 A3001 RMK AO2 LTG DSNT E SLP163 T03060206

TAF

Not found

Frequencies

Recorded 135.17 MHz ATIS
Unicom 122.80 MHz UNICOM
Ground 121.72 MHz GND
Approach 121.00 MHz MOBILE APP/DEP
Unicom 118.57 MHz CTAF
Clearance 121.72 MHz CLD
Tower 118.57 MHz TWR
Warning: Do not use this data for real-world aviation or navigation. No guarantee of current accuracy is given.